Zurück zum Katalog

DMSP 5D-2 F13 DEB

AktivSSO
NORAD 40609·DEBRIS·🇺🇸 United States

Gestartet Mar 24, 1995 von Vandenberg Space Force Base

Loading…

Nächste Überflüge (nächste 24 Stunden)

TLE

AktuellSource: Space-Track

Epoche: Sep 12, 2026, 09:04 UTC

1 40609U 95015FG  26255.37809535  .00003130  00000-0  91055-3 0  9999
2 40609  98.6773 301.1585 0004950 112.8867 247.2846 14.44957924592430

Verfolge DMSP 5D-2 F13 DEB in Echtzeit mit AllMySat

Download on the App Store